[[{"header":{"parameterUnit":"m.s-1","parameterCategory":1,"la1":30.2991,"la2":30.254,"lo1":-89.0895,"lo2":-89.0444,"dy":0.0017,"dx":0.0017,"nx":28,"ny":28,"refTime":"2023-08-26T03:00:00:Z","depth":0,"parameterNumber":2,"parameterNumberName":"U-component_of_WINDS"},"data":[0,0,0,0,0,0,0,0,0,0,0,0,0,0,0,0,0,0,0,0,0,0,0,0,0,0,0,0,0,0,0,0,0,0,0,0,0,0,0,0,0,0,0,0,0,0,0,0,0,0,0,0,0,0,0,0,0,0,2.6786,2.6786,0,2.6825,2.6826,2.6826,2.6806,2.6805,2.6804,2.6803,2.6843,2.6845,2.6847,0,0,0,0,0,0,0,0,0,0,0,0,0,2.6695,2.6697,2.6786,2.6786,2.6787,2.6825,2.6826,2.6826,2.6806,2.6805,2.6804,2.6802,2.6842,2.6845,2.6847,0,0,0,0,0,0,0,0,0,0,0,0,0,2.6735,2.6697,2.6786,2.6781,2.6781,2.6825,2.6826,2.6826,2.6806,2.6805,2.6803,2.6802,2.6841,2.6844,2.6847,2.6897,0,0,2.6857,2.6858,0,0,0,0,0,0,0,0,2.6732,2.6738,2.6781,2.6782,2.6782,2.6809,2.6808,2.685,2.6807,2.6797,2.6803,2.6801,2.6833,2.6836,2.6847,2.6899,2.6901,2.6857,2.6859,2.686,2.6861,0,0,0,0,0,0,0,2.673,2.6736,2.6801,2.6782,2.6782,2.6778,2.6782,2.6816,2.6823,2.6798,2.6796,2.6801,2.6833,2.6844,2.6848,2.6902,2.6857,2.686,2.6861,2.6863,2.7001,2.7003,0,0,0,0,0,0,2.6727,2.6734,2.68,2.6803,2.6753,2.6781,2.6785,2.6802,2.6823,2.6824,2.6802,2.68,2.684,2.6845,2.6849,2.6912,2.686,2.6863,2.6865,2.6999,2.7001,2.7003,0,0,0,0,0,0,2.6725,2.6733,2.6798,2.6768,2.6776,2.6784,2.6803,2.6803,2.6815,2.6826,2.6828,2.6813,2.6839,2.6845,2.6887,2.6913,2.6864,2.6867,2.6997,2.7,2.7002,2.7036,0,0,0,0,0,0,2.6723,2.6732,2.6751,2.6768,2.6778,2.6834,2.6805,2.6805,2.6821,2.6818,2.6837,2.6838,2.6838,2.6882,2.689,2.6916,2.6869,2.6994,2.6998,2.7001,2.7032,2.7039,2.7045,0,0,0,0,0,2.6719,2.6758,2.6752,2.676,2.6801,2.6836,2.6841,2.684,2.6823,2.6842,2.685,2.6838,2.6909,2.6887,2.6895,2.6923,2.6993,2.6997,2.7001,2.7029,2.7038,2.7045,0,0,0,0,0,0,2.6742,2.676,2.6753,2.6799,2.6816,2.6832,2.6856,2.6849,2.6871,2.6868,2.6866,2.687,2.6914,2.6922,2.6897,2.6974,2.6948,2.6954,2.6967,2.6975,2.6982,2.6979,2.6872,0,0,0,0,0,2.6752,2.6779,2.6793,2.6832,2.6841,2.6848,2.6863,2.6861,2.6879,2.6886,2.6896,2.6914,2.6941,2.6958,2.6983,2.7034,2.7039,2.7057,2.7064,2.7069,2.7074,2.7105,2.7114,2.7017,2.7017,2.7017,0,0,2.6774,2.6787,2.6804,2.6837,2.685,2.6879,2.6854,2.6884,2.6906,2.689,2.6931,2.694,2.696,2.7007,2.7028,2.7015,2.7103,2.7074,2.7078,2.7081,2.711,2.7119,2.7127,2.702,2.7019,2.7019,0,0,2.6828,2.684,2.6874,2.6889,2.691,2.6915,2.6923,2.6941,2.6947,2.6988,2.6978,2.7004,2.7049,2.7065,2.7079,2.7143,2.7134,2.7151,2.7185,2.7214,2.7222,2.7229,2.7254,2.7263,2.7156,2.7156,2.7156,0,2.6851,2.6894,2.6893,2.6926,2.6942,2.693,2.6967,2.6981,2.7009,2.7021,2.7006,2.7065,2.7078,2.713,2.7146,2.7157,2.7168,2.7149,2.7221,2.7228,2.7234,2.7258,2.7267,2.7158,2.7158,2.7158,2.7158,0,2.6924,2.6954,2.6979,2.7008,2.7027,2.7061,2.7067,2.7087,2.7084,2.7091,2.7134,2.7149,2.7178,2.7191,2.7187,2.7243,2.7235,2.7221,2.7195,2.7246,2.7268,2.7277,2.7162,2.7161,2.716,2.716,0,0,2.6991,2.7021,2.7031,2.7045,2.7069,2.7093,2.7128,2.7157,2.7175,2.7196,2.7226,2.7266,2.7255,2.7271,2.727,2.7296,2.7349,2.7279,2.7279,2.7293,2.7414,2.7425,2.7435,2.7343,2.7344,2.7346,2.7413,0,2.7048,2.7109,2.7111,2.7167,2.7197,2.7188,2.7219,2.7238,2.7246,2.7272,2.7281,2.731,2.7291,2.7301,2.7327,2.7337,2.7373,2.7332,2.7372,2.7374,2.7368,2.7447,2.7458,2.752,2.7421,2.7423,2.7424,0,2.7122,2.7147,2.7206,2.7229,2.7242,2.7269,2.7298,2.7323,2.7345,2.735,2.7369,2.7366,2.7403,2.7376,2.7429,2.7401,2.7418,2.7426,2.7429,2.7433,2.7402,2.7454,2.754,2.755,2.7437,2.7436,2.7435,0,2.7168,2.7216,2.7258,2.7271,2.7298,2.7318,2.733,2.7351,2.737,2.7395,2.7408,2.7437,2.7453,2.7477,2.7482,2.7462,2.7536,2.7509,2.7542,2.7542,2.7558,2.7557,2.7648,2.7567,2.7567,2.7567,2.7567,0,2.7231,2.7269,2.728,2.7306,2.7348,2.7351,2.7393,2.7404,2.7424,2.7453,2.7447,2.7475,2.7479,2.7509,2.7513,2.7558,2.7565,2.757,2.7571,2.7571,2.7571,2.7583,2.7579,2.7569,2.7569,2.7568,2.7568,0,2.7289,2.7298,2.7344,2.7367,2.7374,2.7405,2.7425,2.7451,2.7459,2.7497,2.7506,2.7519,2.7554,2.7561,2.7602,2.7605,2.7659,2.7654,2.7651,2.7651,2.7685,2.7682,2.7788,2.7803,2.7711,2.7711,2.7712,0,2.733,2.7359,2.7386,2.7405,2.7419,2.745,2.747,2.7475,2.7496,2.7526,2.7549,2.7583,2.7611,2.7667,2.7681,2.7713,2.771,2.7745,2.7715,2.7715,2.7713,2.7712,2.7716,2.7751,2.7752,2.7753,2.7753,0,2.7402,2.7405,2.7434,2.7466,2.749,2.7515,2.7538,2.7555,2.7563,2.7587,2.7623,2.7645,2.7688,2.7723,2.7756,2.7769,2.7764,2.7763,2.7773,2.7774,2.7771,2.7775,2.7669,2.776,2.776,2.7759,2.7759,2.7759,2.7453,2.748,2.7504,2.7537,2.7556,2.7579,2.7606,2.7618,2.7648,2.7684,2.7685,2.7725,2.775,2.7794,2.781,2.7842,2.7831,2.7844,2.7848,2.7852,2.7856,2.7766,2.7847,2.7847,2.7847,2.7847,2.7847,0,2.7527,2.7542,2.7573,2.7607,2.7634,2.7627,2.7654,2.7677,2.7712,2.7736,2.7764,2.7807,2.7842,2.7859,2.7894,2.7917,2.7915,2.7926,2.7925,2.7928,2.7862,2.7851,2.7927,2.7927,2.7927,2.7927,2.7927,2.7927,2.7568,2.7613,2.762,2.7676,2.7692,2.7731,2.7747,2.7769,2.7789,2.7837,2.7866,2.7878,2.79,2.7937,2.7969,2.7973,2.7987,2.8,2.8003,2.7941,2.7933,2.7925,2.7915,2.8002,2.8002,2.8067,2.8067,2.8068]},{"header":{"parameterUnit":"m.s-1","parameterCategory":1,"la1":30.2991,"la2":30.254,"lo1":-89.0895,"lo2":-89.0444,"dy":0.0017,"dx":0.0017,"nx":28,"ny":28,"refTime":"2023-08-26T03:00:00:Z","depth":0,"parameterNumber":3,"parameterNumberName":"V-component_of_WINDS"},"data":[0,0,0,0,0,0,0,0,0,0,0,0,0,0,0,0,0,0,0,0,0,0,0,0,0,0,0,0,0,0,0,0,0,0,0,0,0,0,0,0,0,0,0,0,0,0,0,0,0,0,0,0,0,0,0,0,0,0,-3.2004,-3.2004,0,-3.2051,-3.2051,-3.2052,-3.2069,-3.2069,-3.2068,-3.2068,-3.2115,-3.2116,-3.2117,0,0,0,0,0,0,0,0,0,0,0,0,0,-3.1928,-3.193,-3.2004,-3.2004,-3.2005,-3.2051,-3.2051,-3.2052,-3.2069,-3.2069,-3.2068,-3.2068,-3.2114,-3.2116,-3.2117,0,0,0,0,0,0,0,0,0,0,0,0,0,-3.1967,-3.193,-3.2004,-3.2019,-3.2021,-3.2051,-3.2051,-3.2052,-3.2069,-3.2069,-3.2068,-3.2068,-3.2114,-3.2116,-3.2118,-3.2135,0,0,-3.2124,-3.2125,0,0,0,0,0,0,0,0,-3.1964,-3.1969,-3.2016,-3.2018,-3.202,-3.2054,-3.2042,-3.208,-3.2069,-3.205,-3.2068,-3.2068,-3.2094,-3.2098,-3.2107,-3.2138,-3.214,-3.2124,-3.2126,-3.2126,-3.2127,0,0,0,0,0,0,0,-3.1962,-3.1967,-3.2022,-3.2017,-3.2019,-3.2023,-3.2028,-3.2049,-3.2073,-3.2052,-3.2053,-3.2059,-3.2095,-3.2105,-3.2109,-3.214,-3.2124,-3.2126,-3.2127,-3.2128,-3.2191,-3.2191,0,0,0,0,0,0,-3.1957,-3.1965,-3.2021,-3.2024,-3.1991,-3.2025,-3.2031,-3.2043,-3.2073,-3.2077,-3.2059,-3.2059,-3.2102,-3.2106,-3.211,-3.2135,-3.2126,-3.2128,-3.213,-3.2191,-3.2191,-3.2191,0,0,0,0,0,0,-3.1955,-3.1961,-3.2019,-3.1995,-3.2003,-3.2026,-3.204,-3.2044,-3.2054,-3.2078,-3.2083,-3.2065,-3.2102,-3.2107,-3.213,-3.2137,-3.2129,-3.2131,-3.219,-3.2191,-3.2191,-3.2184,0,0,0,0,0,0,-3.1953,-3.1961,-3.1967,-3.1995,-3.2004,-3.2037,-3.2041,-3.2045,-3.2058,-3.2059,-3.2085,-3.2089,-3.2102,-3.2127,-3.2132,-3.214,-3.2133,-3.2189,-3.219,-3.2191,-3.2184,-3.2184,-3.2185,0,0,0,0,0,-3.195,-3.1962,-3.1968,-3.1974,-3.2013,-3.2038,-3.2043,-3.2058,-3.2058,-3.2066,-3.2082,-3.2088,-3.2135,-3.2129,-3.2135,-3.2143,-3.2189,-3.219,-3.2191,-3.2183,-3.2184,-3.2185,0,0,0,0,0,0,-3.1933,-3.1966,-3.1972,-3.1994,-3.2013,-3.2041,-3.205,-3.2058,-3.2077,-3.2077,-3.2095,-3.2101,-3.2123,-3.2135,-3.2128,-3.2164,-3.2163,-3.2165,-3.2155,-3.2156,-3.2156,-3.2153,-3.2135,0,0,0,0,0,-3.1933,-3.1951,-3.1978,-3.1994,-3.2004,-3.2026,-3.2037,-3.2048,-3.2068,-3.2076,-3.2093,-3.2113,-3.2133,-3.2145,-3.2164,-3.2186,-3.2193,-3.2195,-3.2195,-3.2196,-3.2197,-3.2213,-3.2214,-3.2195,-3.2195,-3.2195,0,0,-3.193,-3.195,-3.196,-3.1992,-3.2008,-3.2027,-3.2032,-3.2051,-3.2065,-3.2078,-3.2102,-3.2116,-3.2138,-3.2162,-3.2173,-3.2173,-3.2205,-3.2197,-3.2197,-3.2198,-3.2214,-3.2216,-3.2217,-3.2195,-3.2195,-3.2195,0,0,-3.1936,-3.1953,-3.197,-3.1986,-3.2012,-3.2026,-3.2031,-3.2058,-3.2068,-3.2092,-3.2103,-3.212,-3.2153,-3.217,-3.2182,-3.2198,-3.2206,-3.2204,-3.2207,-3.2221,-3.2223,-3.2225,-3.2232,-3.2234,-3.2206,-3.2206,-3.2206,0,-3.193,-3.1959,-3.1977,-3.1996,-3.2011,-3.2025,-3.2043,-3.2059,-3.2088,-3.2098,-3.2098,-3.2141,-3.2157,-3.2186,-3.2191,-3.22,-3.2206,-3.2201,-3.2221,-3.2223,-3.2225,-3.2232,-3.2235,-3.2205,-3.2205,-3.2205,-3.2205,0,-3.1951,-3.1971,-3.1982,-3.2012,-3.2028,-3.2046,-3.2067,-3.2081,-3.2091,-3.2106,-3.2132,-3.2152,-3.2177,-3.2185,-3.2194,-3.2215,-3.2215,-3.2218,-3.2217,-3.2226,-3.2234,-3.2236,-3.2205,-3.2205,-3.2205,-3.2205,0,0,-3.1946,-3.1989,-3.1992,-3.2008,-3.2038,-3.2054,-3.2074,-3.21,-3.2112,-3.2132,-3.2151,-3.218,-3.2184,-3.2198,-3.221,-3.2222,-3.2237,-3.2224,-3.2225,-3.2227,-3.2264,-3.2263,-3.2266,-3.2242,-3.2242,-3.2243,-3.2263,0,-3.1957,-3.1994,-3.2012,-3.2041,-3.2061,-3.2077,-3.2095,-3.2116,-3.2131,-3.2151,-3.2168,-3.2189,-3.2191,-3.2201,-3.2214,-3.2232,-3.2245,-3.2231,-3.226,-3.2261,-3.2254,-3.2269,-3.2267,-3.2285,-3.2266,-3.2266,-3.2267,0,-3.1974,-3.1997,-3.2028,-3.206,-3.2069,-3.2084,-3.2111,-3.2129,-3.2154,-3.2164,-3.2183,-3.2194,-3.2217,-3.2215,-3.2248,-3.2238,-3.2252,-3.2263,-3.2264,-3.2267,-3.2264,-3.2275,-3.2291,-3.2294,-3.2271,-3.2271,-3.227,0,-3.1969,-3.2007,-3.2032,-3.2045,-3.2081,-3.2092,-3.2108,-3.2133,-3.2148,-3.2171,-3.2182,-3.2207,-3.2221,-3.224,-3.2259,-3.2256,-3.2291,-3.229,-3.2301,-3.2301,-3.2308,-3.2307,-3.2327,-3.2315,-3.2315,-3.2315,-3.2315,0,-3.1979,-3.1998,-3.2031,-3.2046,-3.2069,-3.209,-3.2112,-3.2129,-3.2152,-3.2171,-3.2186,-3.2204,-3.2228,-3.2249,-3.2264,-3.229,-3.2296,-3.2306,-3.231,-3.2305,-3.2304,-3.2314,-3.2314,-3.2315,-3.2315,-3.2315,-3.2315,0,-3.1977,-3.1999,-3.2028,-3.2061,-3.207,-3.2086,-3.2115,-3.2131,-3.2148,-3.2173,-3.218,-3.2206,-3.2233,-3.2254,-3.2287,-3.2298,-3.2326,-3.2329,-3.2317,-3.232,-3.2331,-3.233,-3.2359,-3.2364,-3.2347,-3.2347,-3.2347,0,-3.1982,-3.1998,-3.2034,-3.2049,-3.2065,-3.2088,-3.2105,-3.2127,-3.2144,-3.2176,-3.2188,-3.2216,-3.2239,-3.2281,-3.2303,-3.233,-3.2335,-3.2344,-3.2339,-3.2335,-3.2337,-3.2337,-3.2339,-3.2344,-3.2344,-3.2344,-3.2344,0,-3.199,-3.2002,-3.2025,-3.2054,-3.2074,-3.2097,-3.212,-3.2132,-3.2159,-3.2177,-3.2205,-3.2223,-3.226,-3.2287,-3.2317,-3.2334,-3.2344,-3.2346,-3.235,-3.2346,-3.2339,-3.2345,-3.232,-3.2345,-3.2345,-3.2345,-3.2345,-3.2345,-3.1993,-3.2009,-3.2038,-3.2064,-3.2085,-3.2108,-3.2125,-3.2146,-3.217,-3.2202,-3.2214,-3.2243,-3.2271,-3.2312,-3.2329,-3.2353,-3.2354,-3.2359,-3.2361,-3.2362,-3.2363,-3.2335,-3.2358,-3.2358,-3.2358,-3.2358,-3.2358,0,-3.2003,-3.2023,-3.2048,-3.2082,-3.2103,-3.2113,-3.214,-3.2158,-3.2184,-3.2209,-3.2233,-3.2266,-3.2294,-3.232,-3.235,-3.2364,-3.237,-3.2371,-3.2371,-3.2375,-3.2359,-3.2354,-3.2366,-3.2366,-3.2366,-3.2366,-3.2366,-3.2366,-3.201,-3.2039,-3.2054,-3.2093,-3.2113,-3.2143,-3.2159,-3.218,-3.2201,-3.2238,-3.2262,-3.228,-3.2306,-3.2338,-3.2365,-3.2372,-3.2383,-3.2384,-3.2392,-3.2377,-3.2376,-3.2375,-3.2369,-3.2385,-3.2385,-3.2406,-3.2406,-3.2406]}]]